Showing default

LEMUR-2 GRAM-E-SUE, 67370

Orbit data source: Space-Track

LEMUR-2 GRAM-E-SUE, 67370 is a payload satellite owned by Spire/Lux (US) in SSO that was launched on Sun, 11 Jan 2026 UTC via an FALCON 9 launch vehicle from the Air Force Western Test Range (AFWTR). Payload-class satellites include a variety of spacecraft equipped with specific instruments for various scientific and technological missions. These include communications satellites like Starlink; space stations such as the ISS; scientific satellites like the Hubble; Earth observation satellites from companies like Planet Labs, Umbra, and HawkEye 360; GPS; miniature CubeSats for education and research; and military/defense satellites.

Loading next visibility...
Identifier
67370, 2026-004H
Orbit
SSO
Country
Flag of USUS
Related business
Manufacturer
Spire/Glasgow
Mission
Operational Commercial Com/MetRO
Bus & Motor
CUBESAT 3U, Unknown motor
Mass
4.6 kg wet, 4.6 kg dry
Launch date (UTC)
2026-01-11 (4 months ago)
Launch vehicle
FALCON 9
Launch site
Air Force Western Test Range (AFWTR)
Object type
Payload
Rocket body
Debris
Shape & HBR
Box + 2 Pan, 0.1 m
Radar Cross Section
0.054 m²

Expand to show TLE details & history
Last TLE update: 19 hours ago

TLE from 19 hours ago
0 LEMUR-2 GRAM-E-SUE
1 67370U 26004H   26145.98282723  .00001975  00000-0  21921-3 0  9994
2 67370  97.7975 144.8887 0006075 206.0932 153.9979 14.88353461 19993
Epoch: 2026-05-25T23:35Z
TLE epoch observation values (Epoch: 2026-05-25T23:35:16.272Z)
Latitude
-0.00008°
Longitude
-92.49189°
Altitude
609.929 km
Speed
7.552 km/s
True Right ascension
09h 39m 33s
True Declination
0° 00' 00"
Sunlit
Object was in daylight at epoch
Visualization orbit readout
Latitude
Unknown
Longitude
Unknown
Altitude
Unknown
Speed
Unknown
Apparent Right ascension
Unknown
Apparent Declination
Unknown
Sunlit
N/A
Visualization observer readout
Local Sidereal Time
03:35:48
Azimuth
Unknown
Elevation
Unknown
Doppler factor
Unknown
Orbital elements
Apogee altitude
604.344 km
Perigee altitude
595.866 km
Semi-major axis
6,978.242 km
Eccentricity
0.00061
Inclination
97.7975°
RAAN
144.8887°
Arg. of periapsis
206.0932°
True anomaly
154.0284°
Mean anomaly
153.9979°
Eccentric anomaly
154.01315°
Mean motion
3.72327 °/min
Orbital period
96.69 mins
BSTAR
0.00021921
Loading maneuver chart data...
Computing Atmospheric mass density...
Loading historical data...
Loading historical data...
Loading historical data...
Loading historical data...
Loading historical data...
Loading historical data...
Loading historical data...

Documentation

Showing up to 5 results
|